TimeCDT,TemperatureF,Dew PointF,Humidity,Sea Level PressureIn,VisibilityMPH,Wind Direction,Wind SpeedMPH,Gust SpeedMPH,PrecipitationIn,Events,Conditions,WindDirDegrees,DateUTC
12:58 AM,81.5,75.4,82,30.03,10.0,ESE,4.6,-,N/A,,Partly Cloudy,110,2013-08-10 05:58:00
1:23 AM,80.6,75.2,84,30.02,10.0,SSE,6.9,-,N/A,,Mostly Cloudy,160,2013-08-10 06:23:00
1:43 AM,82.4,75.2,79,30.02,10.0,SSE,9.2,-,N/A,,Mostly Cloudy,150,2013-08-10 06:43:00
1:58 AM,83.7,74.3,73,30.02,10.0,SSE,8.1,-,N/A,,Scattered Clouds,150,2013-08-10 06:58:00
2:58 AM,84.0,74.3,72,30.02,10.0,SE,8.1,-,N/A,,Clear,140,2013-08-10 07:58:00
3:58 AM,83.8,73.8,72,30.03,10.0,SSE,9.2,-,N/A,,Partly Cloudy,150,2013-08-10 08:58:00
4:35 AM,80.6,75.2,84,30.02,10.0,Variable,6.9,-,N/A,Rain,Light Rain,0,2013-08-10 09:35:00
4:49 AM,80.6,75.2,84,30.02,10.0,Variable,2.3,-,N/A,,Partly Cloudy,0,2013-08-10 09:49:00
4:58 AM,80.6,75.4,84,30.03,10.0,SSE,8.1,-,0.00,,Partly Cloudy,160,2013-08-10 09:58:00
5:33 AM,78.8,75.2,89,30.03,10.0,ENE,6.9,-,N/A,,Mostly Cloudy,60,2013-08-10 10:33:00
5:38 AM,78.8,75.2,89,30.03,10.0,NE,5.8,-,N/A,,Mostly Cloudy,50,2013-08-10 10:38:00
5:58 AM,78.4,75.9,92,30.04,10.0,ENE,5.8,-,N/A,,Partly Cloudy,70,2013-08-10 10:58:00
6:58 AM,77.7,75.2,92,30.05,10.0,NE,4.6,-,N/A,,Clear,40,2013-08-10 11:58:00
7:58 AM,81.7,76.6,85,30.06,10.0,East,2.3,-,N/A,,Clear,90,2013-08-10 12:58:00
8:58 AM,83.3,76.5,80,30.07,10.0,ENE,5.8,-,N/A,,Clear,70,2013-08-10 13:58:00
9:58 AM,86.7,76.3,71,30.08,10.0,East,3.5,-,N/A,,Clear,80,2013-08-10 14:58:00
10:58 AM,88.5,75.2,65,30.10,10.0,SSE,8.1,-,N/A,,Partly Cloudy,160,2013-08-10 15:58:00
11:58 AM,89.2,75.0,63,30.10,10.0,SSE,9.2,-,N/A,,Partly Cloudy,160,2013-08-10 16:58:00
12:58 PM,89.4,74.5,61,30.08,10.0,SSE,8.1,-,N/A,,Partly Cloudy,160,2013-08-10 17:58:00
1:58 PM,90.3,75.2,61,30.07,10.0,SSE,11.5,17.3,N/A,,Clear,160,2013-08-10 18:58:00
2:22 PM,91.4,75.2,59,30.05,10.0,SSE,10.4,-,N/A,Thunderstorm,Thunderstorm,160,2013-08-10 19:22:00
2:52 PM,89.6,75.2,62,30.05,10.0,SSE,9.2,-,N/A,,Scattered Clouds,160,2013-08-10 19:52:00
2:58 PM,90.0,75.2,62,30.06,10.0,SSE,10.4,-,N/A,,Partly Cloudy,160,2013-08-10 19:58:00
3:58 PM,87.6,74.7,65,30.05,10.0,SSE,10.4,-,N/A,Thunderstorm,Clear,150,2013-08-10 20:58:00
4:20 PM,87.8,75.2,66,30.05,10.0,South,10.4,-,N/A,Thunderstorm,Thunderstorm,180,2013-08-10 21:20:00
4:35 PM,86.0,75.2,70,30.05,10.0,SSE,10.4,-,N/A,Thunderstorm,Clear,150,2013-08-10 21:35:00
4:58 PM,85.8,73.9,67,30.05,10.0,Variable,6.9,-,N/A,,Clear,0,2013-08-10 21:58:00
5:58 PM,85.3,73.4,67,30.04,10.0,Variable,6.9,-,N/A,,Clear,0,2013-08-10 22:58:00
6:58 PM,84.2,73.9,71,30.06,10.0,South,5.8,-,N/A,,Clear,170,2013-08-10 23:58:00
7:58 PM,83.7,71.8,67,30.07,10.0,SE,5.8,-,N/A,,Clear,130,2013-08-11 00:58:00
8:58 PM,83.8,73.4,71,30.08,10.0,South,8.1,-,N/A,,Partly Cloudy,180,2013-08-11 01:58:00
9:58 PM,83.5,74.3,74,30.09,10.0,SSE,5.8,-,N/A,,Clear,160,2013-08-11 02:58:00
10:58 PM,83.5,74.3,74,30.09,10.0,South,8.1,-,N/A,,Clear,170,2013-08-11 03:58:00
11:53 PM,84.2,75.2,74,30.07,10.0,South,8.1,-,N/A,,Mostly Cloudy,170,2013-08-11 04:53:00
11:58 PM,83.5,75.0,76,30.08,10.0,South,5.8,-,N/A,,Scattered Clouds,170,2013-08-11 04:58:00